カタログに戻る

THOR BURNER 2A DEB

運用中SSO
NORAD 28591·DEBRIS·🇺🇸 United States

打ち上げ Mar 16, 1974 から Vandenberg Space Force Base

Loading…

次のパス (今後24時間)

TLE

最新Source: Space-Track

元期: Sep 14, 2026, 14:25 UTC

1 28591U 74015C   26257.60085829  .00000135  00000-0  80221-4 0  9998
2 28591  98.9427 167.9485 0045278 221.1087 258.8118 14.22447915122549

AllMySatでTHOR BURNER 2A DEBをリアルタイム追跡

Download on the App Store